Regional Weather Roundup
Issued by NWS

Home | Current Version | Previous Version | Text Only | Print | Product List | Glossary On
Versions: 1 2 3 4 5 6 7 8 9 10 11 12 13 14 15 16 17 18 19 20 21 22 23 24 25 26 27 28 29 30 31 32 33 34 35 36 37 38 39 40 41 42 43 44 45 46 47 48 49 50
000
ASUS43 KLSX 081907
RWRMO

WEATHER SUMMARY FOR MISSOURI
NATIONAL WEATHER SERVICE SPRINGFIELD MO
100 PM CST THU DEC 08 2016

NOTE: "FAIR" INDICATES FEW OR NO CLOUDS BELOW 12,000 FEET WITH NO
       SIGNIFICANT WEATHER AND/OR OBSTRUCTIONS TO VISIBILITY.
       CURRENT SKY AND/OR WEATHER CONDITIONS ARE NOT AVAILABLE FOR
       CHILLICOTHE AND FARMINGTON.

MOZ001>031-035>038-043-044-053-054-082000-
...NORTHERN AND WESTERN MISSOURI...

CITY           SKY/WX    TMP DP  RH WIND       PRES   REMARKS
KANSAS CTY INT MOSUNNY   23   9  55 NW13      30.60F WCI  11
KANSAS C DTWN    N/A     25  11  55 W13       30.62F WCI  14
LEE`S SUMMIT   SUNNY     24  12  60 NW14G21   30.59F WCI  12
ST JOSEPH      SUNNY     24   9  52 NW15      30.61F WCI  11
CHILLICOTHE      N/A     24   9  52 NW14G22   30.58F WCI  12
KIRKSVILLE     SUNNY     25  10  53 NW14      30.51S WCI  13

$$
MOZ066>068-077>081-088>096-101>105-082000-
...SOUTHWEST MISSOURI...

CITY           SKY/WX    TMP DP  RH WIND       PRES   REMARKS
SPRINGFIELD    SUNNY     28  13  53 NW8G22    30.55F WCI  20
JOPLIN         SUNNY     28  13  53 NW13      30.63F WCI  17
BRANSON        PTSUNNY   28   9  43 NW8G18    30.55F WCI  20

$$
MOZ032>034-039>042-045>050-055>058-069>072-082000-
...CENTRAL MISSOURI...

CITY           SKY/WX    TMP DP  RH WIND       PRES   REMARKS
COLUMBIA       SUNNY     25  10  53 NW16G24   30.53F WCI  12
JEFFERSON CITY SUNNY     26  10  50 NW14      30.55F WCI  14
ROLLA          SUNNY     27  13  55 W16G22    30.49F WCI  15
SEDALIA        MOSUNNY   24  12  60 W14       30.57F WCI  12
WHITEMAN AFB   MOSUNNY   25  13  58 W12G21    30.57F WCI  15
WARRENSBURG    SUNNY     27  14  59 W9        30.59F WCI  17
OSAGE BEACH    SUNNY     30  15  53 NW8       30.55F WCI  22

$$
MOZ051-052-059>065-082000-
...EAST CENTRAL MISSOURI...

CITY           SKY/WX    TMP DP  RH WIND       PRES   REMARKS
ST LOUIS INTL  MOSUNNY   30  11  45 W23       30.49F WCI  17
SPIRIT OF STL  MOSUNNY   30  13  49 W12       30.50F WCI  20
ST CHARLES     SUNNY     28  13  53 W15       30.49F WCI  16

$$
MOZ072>076-082>087-097>100-106>115-082000-
...SOUTH CENTRAL AND SOUTHEAST MISSOURI...

CITY           SKY/WX    TMP DP  RH WIND       PRES   REMARKS
CAPE GIRARDEAU SUNNY     34  13  41 NW12      30.48F WCI  25
FARMINGTON     SUNNY     31  14  49 NW14G21   30.46F WCI  21
POPLAR BLUFF   SUNNY     35  13  40 NW10      30.50F WCI  27
WEST PLAINS    SUNNY     31  11  43 NW12G21   30.51F WCI  22

$$



USA.gov is the U.S. government's official web portal to all federal, state and local government web resources and services.